Location: Beeston
(52.7000°N, 0.8167°E)
Time: 10:39:39
(UTC+00:00)

SL-16 R/B - Pass Details

Date: 15 May 2026
Orbit: 838 x 849 km, 71.0° (Epoch: 6 June)

Event Time Altitude Azimuth Distance (km) Brightness Sun altitude
Rises 22:23:30 0° 326° (NW) 3,423 7.0 -15.7°
Reaches altitude 10° 22:26:36 10° 342° (NNW) 2,486 6.0 -15.8°
Maximum altitude 22:30:53 21° 31° (NNE) 1,822 4.4 -16.1°
Drops below altitude 10° 22:35:08 10° 80° (E) 2,480 4.5 -16.3°
Sets 22:38:13 0° 96° (E) 3,413 5.1 -16.4°
